When you browse on this site, cookies collect data to enhance your experience and personalize the content and advertising you see.
Visit our Privacy Policy to learn more. By continuing to use the site, you agree to this use of cookies and data.
  • în România
  • Lista ţărilor
  • Pe 7 zile
  • Temperatura apei
  • Hartă satelitară
  • Meteo pe hartă
  • Widget-uri
  • user-avatar
    Intrare

    Meteo pe oră la Bucureşti

    Astăzi, 23 Aprilie, Marţi

    Timp Temperatura Precipitaţii Vânt Presiune Umiditate
    00:00 +6°C° 0 mm 4 m/s 761 mmHg 53%
    01:00 +6°C° 0 mm 4 m/s 761 mmHg 54%
    02:00 +5°C° 0 mm 4 m/s 761 mmHg 55%
    03:00 +5°C° 0 mm 4 m/s 761 mmHg 56%
    04:00 +5°C° 0 mm 4 m/s 761 mmHg 56%
    05:00 +5°C° 0 mm 4 m/s 761 mmHg 57%
    06:00 +5°C° 0 mm 5 m/s 761 mmHg 57%
    07:00 +6°C° 0 mm 5 m/s 762 mmHg 57%
    08:00 +7°C° 0 mm 5 m/s 762 mmHg 57%
    09:00 +9°C° 0 mm 6 m/s 762 mmHg 53%
    10:00 +10°C° 0 mm 6 m/s 762 mmHg 50%
    11:00 +13°C° 0 mm 6 m/s 762 mmHg 46%
    12:00 +14°C° 0 mm 6 m/s 762 mmHg 46%
    13:00 +14°C° 0 mm 6 m/s 762 mmHg 46%
    14:00 +15°C° 0 mm 7 m/s 761 mmHg 46%
    15:00 +15°C° 0 mm 6 m/s 761 mmHg 48%
    16:00 +15°C° 0 mm 5 m/s 761 mmHg 50%
    17:00 +15°C° 0 mm 5 m/s 760 mmHg 53%
    18:00 +14°C° 0 mm 5 m/s 761 mmHg 55%
    19:00 +13°C° 0 mm 5 m/s 761 mmHg 56%
    20:00 +12°C° 0 mm 5 m/s 761 mmHg 58%
    21:00 +12°C° 0 mm 4 m/s 761 mmHg 57%
    22:00 +11°C° 0 mm 4 m/s 761 mmHg 56%
    23:00 +10°C° 0 mm 4 m/s 761 mmHg 55%

    Mâine, 24 Aprilie, Miercuri

    Timp Temperatura Precipitaţii Vânt Presiune Umiditate
    00:00 +10°C° 0 mm 4 m/s 761 mmHg 56%
    01:00 +10°C° 0 mm 4 m/s 761 mmHg 56%
    02:00 +8°C° 0 mm 5 m/s 761 mmHg 57%
    03:00 +8°C° 0 mm 5 m/s 761 mmHg 60%
    04:00 +7°C° 0 mm 4 m/s 761 mmHg 63%
    05:00 +7°C° 0 mm 4 m/s 761 mmHg 66%
    06:00 +8°C° 0 mm 4 m/s 761 mmHg 67%
    07:00 +8°C° 0 mm 4 m/s 761 mmHg 68%
    08:00 +10°C° 0 mm 4 m/s 761 mmHg 69%
    09:00 +12°C° 0 mm 4 m/s 761 mmHg 65%
    10:00 +14°C° 0 mm 4 m/s 761 mmHg 62%
    11:00 +17°C° 0 mm 4 m/s 761 mmHg 58%
    12:00 +18°C° 0 mm 4 m/s 761 mmHg 57%
    13:00 +19°C° 0 mm 4 m/s 761 mmHg 55%
    14:00 +20°C° 0 mm 4 m/s 761 mmHg 54%
    15:00 +20°C° 0 mm 4 m/s 761 mmHg 56%
    16:00 +20°C° 0 mm 4 m/s 761 mmHg 58%
    17:00 +19°C° 0 mm 4 m/s 761 mmHg 60%
    18:00 +18°C° 0 mm 4 m/s 761 mmHg 66%
    19:00 +17°C° 0 mm 4 m/s 761 mmHg 71%
    20:00 +14°C° 0 mm 4 m/s 761 mmHg 76%
    21:00 +13°C° 0 mm 4 m/s 762 mmHg 77%
    22:00 +12°C° 0 mm 4 m/s 762 mmHg 78%
    23:00 +10°C° 0 mm 3 m/s 762 mmHg 79%

    Poimâine, 25 Aprilie, Joi

    Timp Temperatura Precipitaţii Vânt Presiune Umiditate
    00:00 +10°C° 0 mm 3 m/s 762 mmHg 79%
    01:00 +9°C° 0 mm 3 m/s 762 mmHg 80%
    02:00 +9°C° 0 mm 3 m/s 762 mmHg 80%
    03:00 +7°C° 0 mm 4 m/s 762 mmHg 81%
    04:00 +7°C° 0 mm 4 m/s 762 mmHg 82%
    05:00 +7°C° 0 mm 4 m/s 762 mmHg 84%
    06:00 +8°C° 0 mm 4 m/s 762 mmHg 81%
    07:00 +10°C° 0 mm 4 m/s 762 mmHg 78%
    08:00 +11°C° 0 mm 4 m/s 762 mmHg 75%
    09:00 +13°C° 0 mm 4 m/s 762 mmHg 69%
    10:00 +15°C° 0 mm 4 m/s 762 mmHg 63%
    11:00 +18°C° 0 mm 4 m/s 762 mmHg 57%
    12:00 +20°C° 0 mm 4 m/s 762 mmHg 54%
    13:00 +21°C° 0 mm 3 m/s 761 mmHg 52%
    14:00 +22°C° 0 mm 3 m/s 761 mmHg 49%
    15:00 +22°C° 0 mm 3 m/s 761 mmHg 49%
    16:00 +22°C° 0 mm 3 m/s 760 mmHg 50%
    17:00 +24°C° 0 mm 3 m/s 760 mmHg 50%
    18:00 +21°C° 0 mm 4 m/s 760 mmHg 57%
    19:00 +19°C° 0 mm 4 m/s 760 mmHg 63%
    20:00 +17°C° 0 mm 4 m/s 760 mmHg 70%
    21:00 +15°C° 0 mm 4 m/s 761 mmHg 72%
    22:00 +14°C° 0 mm 4 m/s 761 mmHg 74%
    23:00 +12°C° 0 mm 3 m/s 761 mmHg 75%

    26 Aprilie, Vineri

    Timp Temperatura Precipitaţii Vânt Presiune Umiditate
    00:00 +12°C° 0 mm 3 m/s 761 mmHg 75%
    01:00 +11°C° 0 mm 3 m/s 760 mmHg 74%
    02:00 +10°C° 0 mm 3 m/s 760 mmHg 73%
    03:00 +10°C° 0 mm 3 m/s 760 mmHg 75%
    04:00 +9°C° 0 mm 3 m/s 760 mmHg 76%
    05:00 +9°C° 0 mm 3 m/s 760 mmHg 77%
    06:00 +10°C° 0 mm 4 m/s 760 mmHg 74%
    07:00 +11°C° 0 mm 4 m/s 760 mmHg 71%
    08:00 +12°C° 0 mm 4 m/s 760 mmHg 68%
    09:00 +14°C° 0 mm 4 m/s 760 mmHg 62%
    10:00 +18°C° 0 mm 4 m/s 760 mmHg 56%
    11:00 +20°C° 0 mm 4 m/s 759 mmHg 49%
    12:00 +21°C° 0 mm 4 m/s 759 mmHg 47%
    13:00 +22°C° 0 mm 4 m/s 759 mmHg 45%
    14:00 +23°C° 0 mm 4 m/s 758 mmHg 43%
    15:00 +23°C° 0 mm 4 m/s 758 mmHg 46%
    16:00 +22°C° 0 mm 4 m/s 758 mmHg 48%
    17:00 +22°C° 0 mm 5 m/s 757 mmHg 50%
    18:00 +20°C° 0 mm 4 m/s 758 mmHg 55%
    19:00 +18°C° 0 mm 4 m/s 758 mmHg 60%
    20:00 +15°C° 0 mm 4 m/s 758 mmHg 64%
    21:00 +14°C° 0 mm 4 m/s 758 mmHg 66%
    22:00 +13°C° 0 mm 3 m/s 758 mmHg 67%
    23:00 +12°C° 0 mm 3 m/s 758 mmHg 68%

    27 Aprilie, Sâmbătă

    Timp Temperatura Precipitaţii Vânt Presiune Umiditate
    00:00 +11°C° 0 mm 3 m/s 758 mmHg 69%
    01:00 +10°C° 0 mm 3 m/s 758 mmHg 71%
    02:00 +10°C° 0 mm 3 m/s 757 mmHg 72%
    03:00 +9°C° 0 mm 3 m/s 757 mmHg 74%
    04:00 +9°C° 0 mm 3 m/s 757 mmHg 77%
    05:00 +9°C° 0 mm 3 m/s 756 mmHg 79%
    06:00 +10°C° 0 mm 3 m/s 756 mmHg 75%
    07:00 +11°C° 0 mm 3 m/s 756 mmHg 72%
    08:00 +13°C° 0 mm 4 m/s 756 mmHg 68%
    09:00 +15°C° 0 mm 4 m/s 756 mmHg 61%
    10:00 +18°C° 0 mm 4 m/s 756 mmHg 54%
    11:00 +21°C° 0 mm 4 m/s 756 mmHg 48%
    12:00 +22°C° 0 mm 4 m/s 755 mmHg 46%
    13:00 +24°C° 0 mm 3 m/s 755 mmHg 44%
    14:00 +25°C° 0 mm 3 m/s 754 mmHg 42%
    15:00 +25°C° 0 mm 3 m/s 754 mmHg 44%
    16:00 +25°C° 0 mm 3 m/s 753 mmHg 47%
    17:00 +24°C° 0 mm 3 m/s 753 mmHg 50%
    18:00 +22°C° 0 mm 3 m/s 753 mmHg 57%
    19:00 +20°C° 0 mm 3 m/s 753 mmHg 65%
    20:00 +18°C° 0 mm 4 m/s 754 mmHg 72%
    21:00 +17°C° 0 mm 3 m/s 754 mmHg 73%
    22:00 +16°C° 0 mm 3 m/s 754 mmHg 75%
    23:00 +15°C° 0 mm 2 m/s 754 mmHg 76%

    28 Aprilie, Duminică

    Timp Temperatura Precipitaţii Vânt Presiune Umiditate
    00:00 +14°C° 0.2 mm 2 m/s 754 mmHg 76%
    01:00 +14°C° 0.2 mm 2 m/s 754 mmHg 75%
    02:00 +13°C° 0.2 mm 2 m/s 754 mmHg 75%
    03:00 +13°C° 1.1 mm 2 m/s 754 mmHg 77%
    04:00 +13°C° 1.1 mm 2 m/s 754 mmHg 79%
    05:00 +12°C° 1.1 mm 1 m/s 754 mmHg 81%
    06:00 +13°C° 0.2 mm 1 m/s 754 mmHg 78%
    07:00 +14°C° 0.2 mm 2 m/s 754 mmHg 75%
    08:00 +15°C° 0.2 mm 2 m/s 755 mmHg 72%
    09:00 +17°C° 0.1 mm 2 m/s 755 mmHg 69%
    10:00 +19°C° 0.1 mm 2 m/s 755 mmHg 66%
    11:00 +21°C° 0.1 mm 3 m/s 755 mmHg 62%
    12:00 +21°C° 0.1 mm 3 m/s 754 mmHg 59%
    13:00 +22°C° 0.1 mm 4 m/s 754 mmHg 55%
    14:00 +22°C° 0.1 mm 4 m/s 754 mmHg 52%
    15:00 +22°C° 0.1 mm 4 m/s 753 mmHg 52%
    16:00 +21°C° 0.1 mm 5 m/s 753 mmHg 53%
    17:00 +21°C° 0.1 mm 5 m/s 753 mmHg 54%
    18:00 +20°C° 0 mm 4 m/s 753 mmHg 58%
    19:00 +18°C° 0 mm 4 m/s 753 mmHg 62%
    20:00 +17°C° 0 mm 4 m/s 754 mmHg 66%
    21:00 +15°C° 0 mm 4 m/s 754 mmHg 68%
    22:00 +14°C° 0 mm 5 m/s 754 mmHg 69%
    23:00 +13°C° 0 mm 5 m/s 754 mmHg 71%
    Arată mai mult